Weather in Terenozek

Kazakhstan     45°03′09″N   64°58′50″E
temp.,
°C
wind,
m/s
gust,
m/s
humid.,
%
clouds,
%
prec.,
mm/h
press.,
hPa
HPBL,
m
21 june, mon
mon2123:00+23sw33230 0.0 101424
02:00+21wsw46260 0.0 101374
05:00+20wsw58320 0.0 1013133
08:00+25wnw67340 0.0 1012409
11:00+32nw68290 0.0 10112096
14:00+34nnw99200 0.0 10102899
17:00+32n99150 0.0 10112582
20:00+27nne9131542 0.0 1013521
22 june, tue
tue2223:00+23nne712204 0.0 1016358
02:00+20ne511285 0.0 1016273
05:00+17ene59405 0.0 1018246
08:00+20ne78390 0.0 1019838
11:00+23ne67301 0.0 10191507
14:00+27ne67220 0.0 10181975
17:00+27nne77205 0.0 10182133
20:00+24nne58240 0.0 1018157
23 june, wed
wed2323:00+22nne48280 0.0 1018113
02:00+20nne47320 0.0 101794
05:00+19ne47380 0.0 101896
08:00+24ene34310 0.0 1018496
11:00+28nne35240 0.0 10171474
14:00+31nnw45220 0.0 10152073
17:00+33nw56200 0.0 10132851
20:00+29wsw44261 0.0 101139
24 june, thu
thu2423:00+28w4828100 0.0 1011150
02:00+25ene36414 0.0 1010109
05:00+23nne345421 0.0 101159
08:00+26ne55475 0.3 1012719
11:00+29ne663779 0.4 10121424
14:00+30nne76285 0.0 10122100
17:00+29nne66250 0.0 10121778
20:00+26ne34300 0.0 101267
25 june, fri
fri2523:00+22e33270 0.0 101327
02:00+18ese01320 0.0 101211
05:00+18ese22300 0.0 101311
08:00+24ese11210 0.0 1014412
11:00+28nne33170 0.0 10142237
14:00+30nne55145 0.0 10132575
17:00+30nne45145 0.0 10122645
20:00+26ese222248 0.0 101211